Wetbulb
69.71 70.74 72.74 73.28 72.97 73.03 72.90 72.82 73.03 73.26 73.40 73.22 73.19 72.75 72.58 72.66 72.93 73.08 72.77 72.53 71.99 71.90 71.07 71.12 71.71 71.86 70.90 70.93 71.00 71.79 71.61 70.80 70.61 71.26 71.71 71.35 70.97 70.83 70.41 70.31 70.07 68.50 69.57
70.80 70.63 72.34 72.98 73.02 73.00 72.93 72.66 72.93 73.12 73.01 73.00 72.67 72.49 72.35 72.56 72.71 72.56 72.28 72.02 71.47 71.49 71.11 71.03 70.79 71.72 71.49 70.96 71.85 71.55 71.12 70.39 70.07 70.51 71.13 70.60 70.29 70.17 69.92 69.14 69.32 68.14 68.65
70.96 70.87 71.30 72.24 72.93 73.05 72.99 73.01 72.96 72.99 72.80 72.56 72.43 72.37 72.45 72.73 72.65 72.21 71.56 71.18 71.47 71.56 71.41 71.87 71.47 71.24 71.77 71.55 71.64 71.00 70.86 70.12 70.01 69.95 70.30 67.58 67.54 69.02 68.66 67.85 67.49 67.33 67.35
71.01 71.23 70.28 72.21 72.53 72.74 72.66 72.64 72.52 72.59 72.63 72.45 72.52 72.40 72.35 72.52 72.16 71.65 71.15 70.81 71.55 71.57 71.47 71.65 71.67 71.25 71.26 71.39 70.85 70.41 70.44 70.10 69.34 68.75 66.70 66.35 66.08 67.67 67.19 66.18 65.86 65.87 65.46
71.29 71.28 71.30 71.92 71.90 72.38 72.51 72.04 71.87 72.31 72.20 72.04 71.88 72.19 72.14 71.99 71.58 71.34 70.73 70.90 71.49 71.30 71.18 71.45 71.47 71.08 70.74 70.14 70.04 69.78 69.32 68.93 67.98 66.69 64.98 64.93 64.07 65.66 65.39 64.48 63.13 63.24 63.21
71.59 71.06 70.89 71.16 71.46 71.62 71.57 71.42 71.92 71.80 71.48 71.39 71.51 71.72 71.92 71.51 70.51 70.78 70.51 71.03 71.39 70.93 70.68 70.90 70.74 70.12 69.67 69.33 69.05 68.90 68.63 66.89 65.90 62.57 62.22 62.92 62.14 64.13 63.54 62.71 61.95 61.76 61.42
71.04 70.11 70.27 70.45 71.11 71.52 71.69 71.70 71.77 71.55 71.18 71.22 71.39 71.32 71.19 71.00 70.70 70.64 70.77 70.80 70.78 69.96 69.69 69.63 69.70 69.46 68.76 68.15 68.21 67.28 66.05 65.59 61.89 61.30 61.04 60.41 59.92 62.35 62.32 61.63 61.27 61.07 60.44
70.19 69.88 69.41 71.03 71.23 71.01 71.02 70.75 71.00 71.09 71.13 71.01 70.95 70.90 70.62 70.32 70.42 70.62 70.22 69.47 68.92 69.21 69.58 68.98 68.80 68.29 67.62 66.85 66.08 65.36 64.65 64.20 61.75 59.88 58.80 58.84 61.33 62.11 61.88 60.99 60.87 60.46 60.28
70.48 69.24 69.26 69.63 70.68 70.40 69.87 69.73 69.77 70.45 70.63 70.38 69.98 69.81 69.67 69.66 70.04 70.03 69.14 68.66 68.46 69.42 68.88 68.00 67.46 67.00 66.60 66.13 65.37 64.58 64.62 63.87 59.07 58.33 58.76 57.75 61.40 61.43 61.53 60.97 61.13 60.17 59.84
69.99 69.17 68.78 69.31 69.38 69.51 69.70 69.77 69.68 69.63 69.51 69.47 69.12 68.85 69.14 69.77 70.11 69.84 68.53 68.35 69.39 69.05 68.21 67.27 66.76 66.28 65.81 65.70 65.54 63.86 63.74 62.57 58.02 57.66 57.70 58.16 60.96 61.15 60.87 60.29 60.14 58.99 58.71
69.08 68.94 69.08 68.61 68.44 68.34 69.12 69.63 69.50 69.58 68.88 68.40 68.37 68.37 67.66 68.54 69.19 69.47 68.75 69.07 68.62 67.97 67.35 66.87 66.29 65.87 65.67 65.46 65.20 64.93 63.24 59.36 58.07 57.58 57.67 61.62 60.89 60.98 60.47 59.78 59.20 58.87 58.60
67.29 68.16 68.84 68.85 68.52 68.14 67.49 67.97 67.57 67.17 66.42 65.87 65.91 67.02 68.17 69.54 69.36 69.10 68.61 68.07 67.55 66.68 66.39 66.16 65.22 65.13 64.51 62.00 62.11 63.93 59.30 58.05 57.56 57.61 58.69 61.28 60.92 60.73 60.15 59.27 58.69 58.23 58.48
67.42 68.06 68.50 69.26 69.50 68.33 66.43 67.20 66.38 65.62 65.70 66.42 67.43 67.59 68.42 68.25 68.55 68.49 67.34 66.84 66.27 66.24 65.19 64.83 63.98 64.92 64.41 63.06 61.38 59.74 58.79 57.70 57.36 57.22 58.95 60.21 59.50 59.78 59.82 59.20 58.51 58.30 58.00
66.71 67.57 67.65 69.09 69.39 68.02 66.70 66.67 65.73 65.53 67.13 67.36 67.74 68.12 68.39 68.51 68.64 68.31 67.71 67.44 67.24 67.15 65.76 65.96 65.02 62.42 60.34 59.71 57.77 58.92 57.59 56.73 55.95 55.37 55.89 57.89 57.24 58.14 59.11 58.90 58.95 58.46 57.77
66.13 66.65 66.75 69.06 69.12 67.98 67.00 67.39 66.71 66.37 68.19 68.99 69.52 69.48 70.39 69.69 68.41 68.40 68.00 67.44 67.26 67.20 65.89 62.66 61.00 59.21 57.70 56.95 56.60 57.34 56.67 55.40 54.81 54.19 53.00 55.35 55.61 56.03 57.07 58.20 58.32 58.02 57.49
66.68 67.34 68.19 68.39 68.85 69.66 69.09 69.31 69.55 68.29 68.50 67.01 69.17 69.63 70.61 69.39 68.09 68.02 67.29 66.64 66.61 66.34 64.36 61.65 60.15 57.33 55.31 54.92 55.01 55.86 56.06 55.49 54.38 53.69 51.38 51.37 53.91 54.13 54.86 55.73 56.46 56.77 56.98
66.68 66.91 66.98 68.25 68.69 68.55 69.35 68.31 68.50 67.27 66.94 67.98 68.73 69.73 69.80 68.12 67.87 67.70 67.28 66.72 65.89 64.27 62.23 61.62 58.36 56.71 54.65 54.68 53.80 54.24 54.16 53.94 54.47 52.69 51.22 50.18 50.34 52.68 52.90 53.46 53.77 54.39 54.97
66.33 65.93 67.11 67.57 67.98 68.05 67.44 68.20 67.22 67.95 68.33 67.05 67.84 68.49 67.83 68.44 67.69 67.56 66.34 66.10 65.13 63.27 61.18 61.18 57.38 54.52 52.96 52.06 51.36 52.16 53.28 52.88 53.11 52.91 53.02 50.87 49.06 49.09 51.23 52.35 52.68 52.96 52.88
65.72 65.66 65.85 66.98 66.66 67.62 67.60 67.64 67.25 68.07 68.13 67.30 67.51 67.08 67.42 67.29 67.58 66.43 66.71 65.52 64.53 61.32 60.58 60.01 56.80 54.53 52.09 51.84 51.80 52.33 52.37 52.09 51.61 52.47 51.11 50.49 50.09 49.27 48.39 51.33 51.61 51.64 51.70
65.34 65.52 66.11 66.18 67.30 67.47 67.21 66.93 66.67 66.55 66.75 66.55 66.35 65.75 65.86 65.45 65.88 65.18 65.95 65.72 64.41 62.85 61.98 59.07 55.63 54.29 52.48 51.57 52.84 51.81 51.01 50.90 51.46 51.35 50.63 51.18 49.95 49.64 48.66 47.24 46.97 48.58 50.67
65.01 64.69 66.22 66.24 65.83 65.76 65.74 64.15 64.06 63.96 64.05 64.14 63.44 64.10 64.14 63.67 64.01 62.83 64.31 64.57 63.89 62.25 60.89 58.91 55.80 53.31 52.19 51.76 49.95 49.64 50.29 51.36 51.00 50.69 50.93 49.32 49.24 48.77 48.30 47.09 45.79 46.27 47.84
65.18 64.90 65.64 65.59 65.73 65.76 65.74 64.70 64.44 63.90 63.08 61.87 60.82 61.15 61.34 61.24 61.46 61.27 62.78 62.64 62.84 62.20 59.12 56.74 54.61 52.20 51.26 51.70 49.30 48.60 45.71 47.43 48.95 50.79 50.17 50.19 48.63 48.49 48.31 47.32 46.01 46.33 46.19
64.51 65.41 65.40 65.18 65.39 65.21 65.25 65.12 64.58 63.42 60.66 58.34 58.50 58.38 59.34 60.24 60.42 61.53 62.73 62.53 63.17 60.87 57.43 56.77 54.99 52.56 49.72 51.39 53.92 51.65 48.94 45.69 46.93 49.07 48.79 48.80 48.71 48.07 47.54 46.92 46.07 46.27 45.85
64.50 65.79 65.55 65.12 64.92 65.32 65.06 64.54 61.90 59.07 56.87 56.84 56.91 57.49 57.77 58.93 59.66 61.64 62.12 62.77 61.69 60.32 58.11 57.09 56.38 53.77 51.97 50.14 52.39 55.15 54.05 52.85 47.62 44.25 47.49 47.96 48.20 47.78 46.78 45.64 44.88 45.49 45.38
64.43 64.91 65.18 64.32 63.79 63.82 64.69 63.56 60.80 60.01 59.36 57.15 56.78 56.41 56.18 57.52 59.01 60.87 62.67 62.48 61.74 59.86 58.32 56.75 55.57 55.21 55.08 53.67 52.67 51.70 52.58 52.23 50.94 48.53 43.53 44.39 46.42 46.88 46.94 45.21 43.87 44.05 44.19
64.45 64.49 64.57 63.60 63.04 63.68 64.41 62.64 61.44 61.49 56.69 55.99 55.36 55.10 55.42 55.91 56.64 59.16 62.25 62.01 61.79 59.88 58.43 58.34 57.53 56.42 55.27 55.14 54.30 53.96 52.88 51.27 50.47 47.00 46.35 44.34 43.97 44.40 45.41 44.79 43.38 42.89 42.84
MSLP
1011.50 1012.29 1012.77 1013.52 1014.02 1014.37 1014.78 1015.19 1015.60 1015.97 1016.20 1016.36 1016.62 1016.85 1016.97 1017.17 1017.39 1017.70 1017.91 1018.16 1018.30 1018.40 1018.50 1018.59 1018.65 1018.75 1018.77 1018.77 1018.95 1019.19 1019.34 1019.48 1019.51 1019.59 1019.58 1019.60 1019.69 1019.78 1019.84 1019.89 1019.96 1020.09 1020.12
1011.34 1012.44 1013.10 1013.77 1014.23 1014.70 1015.14 1015.49 1015.86 1016.30 1016.57 1016.74 1017.04 1017.31 1017.56 1017.59 1017.76 1018.07 1018.38 1018.51 1018.65 1018.83 1018.94 1019.00 1019.14 1019.24 1019.29 1019.30 1019.61 1019.70 1019.67 1019.77 1019.91 1019.74 1019.84 1020.11 1020.37 1020.54 1020.67 1020.80 1020.73 1020.71 1020.79
1011.41 1012.57 1013.42 1014.09 1014.57 1015.03 1015.44 1015.83 1016.20 1016.51 1016.89 1017.08 1017.35 1017.71 1017.90 1018.04 1018.32 1018.44 1018.60 1018.81 1018.95 1019.10 1019.17 1019.26 1019.34 1019.56 1019.67 1019.76 1019.95 1019.90 1019.95 1020.02 1020.16 1020.27 1020.35 1020.90 1021.24 1021.30 1021.47 1021.53 1021.51 1021.55 1021.65
1011.56 1012.54 1013.63 1014.37 1014.84 1015.29 1015.74 1016.16 1016.49 1016.82 1017.11 1017.38 1017.65 1017.99 1018.18 1018.33 1018.57 1018.84 1018.94 1019.00 1019.14 1019.33 1019.43 1019.51 1019.62 1019.94 1020.13 1020.27 1020.22 1020.19 1020.28 1020.51 1020.68 1021.06 1021.42 1021.79 1021.94 1022.13 1022.14 1022.28 1022.35 1022.35 1022.43
1011.41 1012.65 1014.03 1014.49 1015.00 1015.49 1015.95 1016.28 1016.71 1017.05 1017.35 1017.71 1017.97 1018.23 1018.50 1018.65 1018.86 1019.13 1019.29 1019.38 1019.45 1019.56 1019.76 1019.89 1020.09 1020.41 1020.59 1020.56 1020.52 1020.56 1020.88 1021.03 1021.36 1021.87 1022.31 1022.64 1022.77 1022.85 1022.93 1023.09 1023.17 1023.15 1023.13
1011.35 1013.05 1014.40 1014.72 1015.18 1015.60 1016.12 1016.55 1016.99 1017.34 1017.56 1017.82 1018.13 1018.41 1018.67 1018.93 1019.19 1019.37 1019.57 1019.71 1019.84 1020.02 1020.24 1020.44 1020.70 1020.91 1021.00 1021.06 1021.05 1021.15 1021.35 1021.60 1022.09 1022.83 1023.21 1023.52 1023.59 1023.70 1023.62 1023.74 1023.78 1023.79 1023.82
1011.91 1013.33 1014.50 1014.98 1015.40 1015.79 1016.26 1016.68 1017.29 1017.65 1017.87 1018.12 1018.45 1018.77 1019.07 1019.34 1019.64 1019.85 1020.01 1020.18 1020.34 1020.47 1020.75 1020.99 1021.20 1021.38 1021.58 1021.67 1021.74 1021.88 1022.16 1022.43 1023.06 1023.59 1023.91 1024.17 1024.20 1024.19 1024.28 1024.39 1024.44 1024.46 1024.44
1012.23 1013.34 1014.60 1015.23 1015.63 1016.04 1016.51 1016.93 1017.57 1017.99 1018.22 1018.51 1018.84 1019.20 1019.56 1019.83 1020.08 1020.31 1020.55 1020.76 1020.91 1021.04 1021.23 1021.49 1021.71 1021.93 1022.15 1022.29 1022.38 1022.50 1022.76 1023.15 1023.70 1024.08 1024.39 1024.50 1024.68 1024.66 1024.79 1024.88 1024.95 1024.93 1024.94
1012.29 1013.31 1014.65 1015.37 1015.88 1016.29 1016.79 1017.25 1017.80 1018.22 1018.55 1018.78 1019.06 1019.35 1019.65 1019.83 1020.09 1020.35 1020.63 1020.92 1021.16 1021.39 1021.76 1022.02 1022.23 1022.47 1022.72 1022.85 1023.03 1023.20 1023.36 1023.76 1024.12 1024.54 1024.88 1025.18 1025.19 1025.12 1025.16 1025.24 1025.44 1025.40 1025.42
1012.73 1013.47 1014.44 1015.39 1015.90 1016.40 1017.03 1017.52 1018.02 1018.42 1018.72 1018.96 1019.27 1019.62 1019.84 1020.02 1020.33 1020.70 1021.01 1021.19 1021.48 1021.82 1022.20 1022.47 1022.70 1022.93 1023.12 1023.35 1023.51 1023.55 1023.78 1024.31 1024.68 1025.06 1025.47 1025.63 1025.63 1025.67 1025.74 1025.79 1025.87 1025.87 1025.78
1012.93 1013.58 1014.31 1015.15 1015.82 1016.36 1017.14 1017.77 1018.18 1018.59 1018.84 1019.12 1019.31 1019.56 1019.78 1019.92 1020.29 1020.79 1021.22 1021.55 1021.90 1022.26 1022.55 1022.77 1022.99 1023.18 1023.35 1023.41 1023.57 1023.75 1024.11 1024.63 1025.08 1025.54 1025.87 1025.98 1026.02 1026.14 1026.19 1026.26 1026.28 1026.36 1026.32
1012.69 1013.50 1014.15 1014.69 1015.37 1016.08 1016.65 1017.65 1018.08 1018.60 1018.83 1018.90 1019.14 1019.51 1019.51 1019.68 1020.21 1020.91 1021.70 1022.06 1022.37 1022.60 1022.80 1022.88 1022.99 1023.15 1023.29 1023.49 1023.60 1023.83 1024.39 1025.03 1025.68 1026.09 1026.22 1026.35 1026.23 1026.64 1026.67 1026.79 1026.77 1026.87 1026.80
1012.42 1013.17 1013.89 1014.43 1015.04 1015.51 1016.64 1017.09 1017.61 1018.11 1018.41 1018.58 1018.61 1019.18 1019.40 1019.48 1020.52 1021.14 1021.92 1022.37 1022.72 1022.96 1023.14 1023.38 1023.47 1023.26 1023.18 1023.45 1023.83 1024.23 1024.73 1025.64 1026.57 1027.18 1026.96 1027.06 1026.80 1027.18 1027.10 1027.17 1027.20 1027.17 1027.28
1012.19 1012.77 1013.51 1014.07 1014.68 1015.44 1016.14 1016.45 1016.83 1017.20 1017.63 1018.10 1018.16 1018.84 1018.92 1019.08 1020.29 1021.05 1021.75 1022.25 1022.53 1022.70 1022.96 1023.14 1023.27 1023.43 1023.65 1023.86 1024.18 1024.46 1025.27 1026.08 1026.93 1027.86 1028.07 1027.90 1027.78 1027.71 1027.76 1027.56 1027.44 1027.48 1027.64
1011.97 1012.72 1013.53 1014.10 1014.55 1015.22 1015.65 1015.75 1016.15 1016.58 1016.90 1017.38 1017.98 1018.56 1018.99 1019.40 1020.27 1020.91 1021.41 1021.95 1022.31 1022.68 1022.83 1023.20 1023.61 1023.99 1024.36 1024.57 1024.79 1025.15 1025.88 1026.70 1027.41 1028.31 1028.78 1028.66 1028.51 1028.63 1028.59 1028.26 1028.06 1027.95 1027.99
1011.46 1012.60 1013.49 1014.02 1014.37 1014.71 1015.25 1015.57 1015.99 1016.62 1017.06 1017.52 1018.11 1018.63 1019.16 1019.55 1020.27 1020.61 1020.98 1021.70 1022.30 1022.67 1022.82 1023.46 1023.89 1024.46 1024.96 1025.19 1025.33 1025.58 1026.21 1027.06 1027.75 1028.37 1028.99 1029.09 1029.23 1029.31 1029.32 1029.03 1029.03 1028.75 1028.48
1011.12 1012.42 1013.69 1013.96 1014.35 1014.91 1015.30 1015.63 1016.17 1016.63 1016.94 1017.90 1018.28 1018.83 1019.39 1019.74 1020.27 1020.49 1021.05 1021.83 1022.32 1022.80 1023.21 1023.47 1024.25 1024.80 1025.37 1025.77 1026.11 1026.36 1026.81 1027.15 1027.61 1028.21 1028.86 1029.50 1029.73 1029.68 1029.63 1029.54 1029.78 1029.50 1029.30
1011.02 1012.12 1013.67 1013.98 1014.54 1015.08 1015.52 1015.64 1016.11 1016.55 1016.98 1017.49 1018.33 1018.91 1019.42 1019.57 1020.06 1020.70 1021.27 1022.08 1022.56 1023.03 1023.40 1023.62 1024.37 1025.18 1025.95 1026.45 1026.74 1026.82 1027.07 1027.28 1027.67 1028.32 1028.68 1029.33 1029.85 1029.98 1029.93 1030.03 1030.13 1030.01 1030.12
1010.71 1011.88 1013.12 1013.81 1014.41 1015.11 1015.42 1015.81 1016.20 1016.72 1017.14 1017.55 1018.32 1019.11 1019.40 1019.66 1019.91 1020.60 1021.18 1022.04 1022.46 1023.19 1023.57 1023.70 1024.53 1025.06 1025.95 1026.54 1026.99 1027.19 1027.50 1027.75 1028.07 1028.33 1028.73 1029.00 1029.35 1029.70 1030.17 1030.43 1030.46 1030.52 1030.66
1010.53 1011.66 1012.81 1013.69 1014.36 1015.02 1015.47 1015.88 1016.45 1017.04 1017.36 1017.75 1018.45 1019.19 1019.65 1019.96 1020.04 1020.09 1021.16 1021.77 1022.15 1022.87 1023.30 1023.85 1024.63 1025.17 1025.96 1026.37 1026.98 1027.56 1027.90 1028.04 1028.23 1028.52 1028.88 1029.13 1029.43 1029.65 1030.08 1030.66 1030.79 1030.97 1031.07
1010.65 1011.76 1012.46 1013.58 1014.38 1015.05 1015.46 1015.91 1016.84 1017.35 1017.79 1018.19 1018.79 1019.44 1019.70 1020.17 1020.27 1020.28 1020.80 1021.64 1022.09 1022.58 1023.30 1023.92 1024.79 1025.37 1026.08 1026.61 1027.35 1028.07 1028.28 1028.13 1028.24 1028.44 1028.69 1029.13 1029.46 1029.83 1030.19 1030.57 1030.76 1031.00 1031.17
1010.84 1011.56 1012.52 1013.67 1014.35 1014.96 1015.44 1015.95 1016.72 1017.29 1017.98 1018.37 1019.11 1019.62 1019.70 1020.17 1020.31 1020.47 1020.80 1021.23 1021.52 1022.42 1023.34 1024.18 1024.91 1025.58 1026.30 1026.68 1027.20 1027.53 1028.35 1028.90 1028.67 1028.64 1028.86 1029.29 1029.50 1029.76 1030.32 1030.77 1031.05 1031.04 1031.38
1010.79 1011.52 1012.56 1013.51 1014.23 1014.71 1015.27 1015.84 1016.50 1017.20 1018.09 1018.81 1019.53 1019.86 1019.95 1020.17 1020.27 1020.51 1020.78 1021.15 1021.71 1022.52 1023.64 1024.27 1025.04 1025.52 1026.28 1026.47 1026.54 1026.59 1027.05 1027.54 1028.44 1029.00 1029.20 1029.59 1029.75 1030.13 1030.45 1030.75 1031.16 1031.28 1031.80
1010.69 1011.75 1012.53 1013.38 1013.98 1014.60 1014.87 1015.57 1016.36 1017.17 1018.14 1018.99 1019.46 1019.78 1020.03 1020.15 1020.31 1020.53 1020.68 1021.12 1021.87 1022.57 1023.66 1024.37 1024.88 1025.21 1025.67 1026.16 1026.21 1026.19 1026.18 1026.54 1027.44 1028.94 1029.44 1029.81 1029.95 1030.59 1030.72 1030.88 1031.29 1031.49 1032.05
1010.33 1011.55 1012.49 1013.35 1013.95 1014.28 1014.80 1015.26 1016.27 1017.24 1017.99 1018.91 1019.38 1019.82 1020.18 1020.39 1020.62 1020.70 1020.75 1021.21 1021.98 1022.75 1023.62 1024.36 1024.77 1024.88 1025.14 1025.60 1026.12 1026.14 1026.21 1026.29 1026.48 1027.44 1029.10 1029.82 1030.04 1030.40 1030.82 1031.19 1031.40 1031.65 1032.12
1009.88 1011.37 1012.46 1013.37 1013.85 1014.31 1014.74 1015.21 1016.14 1017.02 1017.95 1018.72 1019.49 1019.98 1020.26 1020.76 1020.95 1020.97 1021.15 1021.46 1022.04 1022.80 1023.52 1024.06 1024.45 1024.67 1024.90 1025.15 1025.40 1025.70 1026.00 1026.36 1026.68 1026.78 1027.90 1029.01 1029.89 1030.49 1030.82 1031.15 1031.56 1031.82 1032.53
Wind_Speed
18 18 20 17 15 15 15 16 16 15 15 16 16 16 16 16 15 17 16 15 16 16 17 16 16 17 17 17 16 15 15 14 17 19 21 23 24 24 25 25 22 18 21
21 19 20 17 16 16 15 16 16 15 15 16 16 16 15 15 16 16 15 15 15 15 15 15 14 15 16 13 12 12 12 11 15 19 23 23 25 26 27 26 25 23 26
21 18 18 17 17 16 15 16 16 16 16 16 16 15 15 15 16 15 15 15 15 15 15 14 14 16 14 11 11 10 12 16 20 22 22 15 18 26 26 26 25 26 26
21 16 17 17 17 17 15 16 15 16 16 16 16 16 15 16 16 14 14 14 15 15 16 15 17 17 14 12 11 13 18 23 23 24 15 15 17 25 25 25 24 24 23
19 18 17 18 17 16 16 15 15 15 15 15 15 15 15 15 15 14 13 14 15 17 17 19 20 17 14 12 13 17 22 22 26 20 16 14 12 20 24 24 22 23 23
21 20 16 17 17 17 16 15 15 15 14 15 15 15 15 15 15 14 13 14 16 18 19 20 19 17 15 16 20 20 20 25 22 17 15 18 15 21 23 23 23 23 23
21 19 17 15 16 17 16 16 15 14 13 14 14 14 14 14 14 14 14 15 16 18 20 20 19 19 19 20 20 21 25 25 16 15 14 13 14 22 22 23 22 23 22
21 18 16 16 15 15 15 16 15 13 13 14 14 14 13 13 14 15 16 16 17 18 18 20 20 21 21 22 23 24 23 21 15 13 12 11 20 22 22 22 22 22 22
20 17 14 14 15 15 14 14 13 14 13 13 13 14 14 14 15 16 17 18 18 18 20 21 21 22 21 20 19 18 16 20 14 10 12 8 21 21 22 22 22 22 21
17 16 15 13 13 12 11 13 13 13 12 12 12 12 13 13 14 16 16 18 18 19 20 21 21 21 20 13 13 18 18 19 12 12 9 9 20 22 22 22 22 20 20
14 15 14 14 14 13 12 12 13 13 12 12 11 13 13 9 10 10 14 16 18 18 19 19 20 17 13 10 11 13 11 8 10 9 6 17 21 21 21 21 21 21 20
16 16 14 13 14 14 12 11 10 11 8 8 9 9 6 10 9 13 13 16 16 16 17 18 18 17 12 5 7 10 7 11 9 9 8 17 21 20 20 20 20 19 20
17 14 15 12 13 13 12 8 7 6 7 6 8 10 8 10 9 8 7 6 7 11 7 7 6 3 4 4 6 6 8 12 10 8 14 21 22 20 19 19 19 19 19
17 18 15 11 11 11 9 9 9 8 8 7 7 8 3 5 8 8 6 7 6 5 7 6 3 7 7 9 10 10 13 11 9 7 13 21 20 20 18 18 19 19 19
18 15 14 12 10 10 10 7 8 6 6 6 5 7 4 5 6 6 7 6 6 5 4 7 5 7 7 6 7 12 14 14 13 7 6 19 21 19 18 19 19 19 19
19 17 15 14 10 8 6 6 6 7 7 4 7 6 4 4 6 5 6 7 6 4 6 6 6 7 6 5 6 8 10 11 11 9 6 9 18 18 18 19 19 19 19
17 19 12 8 11 8 5 6 6 5 5 8 6 7 5 6 8 6 6 6 6 6 6 5 9 5 6 7 7 7 7 8 8 10 9 7 8 16 17 18 17 19 19
19 21 18 12 12 9 6 5 5 5 3 7 5 5 6 6 9 7 7 6 7 5 5 5 6 7 5 5 5 4 5 6 7 7 7 7 5 6 12 15 17 19 18
19 21 19 13 13 10 8 6 6 6 2 5 6 5 4 4 4 7 8 9 9 6 4 5 5 6 5 5 6 5 5 4 6 5 6 7 5 6 6 12 16 17 18
18 19 18 13 12 8 9 5 6 4 4 5 5 5 5 4 3 3 9 9 9 6 4 5 6 5 5 5 7 6 4 5 4 4 6 6 5 6 6 6 5 9 19
17 17 15 13 13 7 7 8 8 5 4 4 6 6 5 5 4 2 6 9 8 8 5 7 5 7 4 6 5 4 3 2 5 4 5 5 6 6 7 6 4 4 8
17 17 16 15 14 10 7 7 7 7 5 5 5 5 6 5 5 3 6 5 5 8 9 7 6 4 4 5 5 4 4 1 1 3 5 5 4 5 6 7 6 5 7
17 16 15 15 15 10 11 7 6 7 6 5 5 4 4 5 5 5 7 5 7 9 6 6 5 8 5 4 5 3 3 4 5 2 2 5 4 5 4 6 6 5 10
19 15 16 16 15 9 8 9 10 8 7 5 4 5 4 5 4 5 6 7 8 7 8 5 6 5 6 4 1 2 2 3 3 4 3 4 5 6 5 5 5 6 9
18 17 15 14 14 11 10 11 8 7 6 6 6 8 6 4 5 3 5 7 7 7 7 7 6 5 5 4 4 2 2 1 1 5 4 3 4 5 5 4 4 5 8
18 17 15 15 15 12 7 10 11 8 10 8 8 6 5 3 3 5 5 6 5 9 8 6 6 5 4 2 4 4 2 1 2 1 6 6 7 3 5 5 5 4 7
Wind_Direction
121 125 118 115 108 102 100 104 106 101 102 98 97 92 91 89 83 81 80 79 77 78 79 80 81 80 79 79 80 77 77 83 89 81 70 64 59 56 55 52 55 55 55
126 125 117 117 110 107 106 106 104 104 103 100 97 93 90 91 86 83 77 78 78 77 77 80 85 87 83 83 76 83 94 98 93 82 72 63 64 62 60 59 55 55 52
119 123 121 118 115 111 107 105 105 107 107 102 101 98 95 88 87 86 84 81 79 77 79 80 94 98 91 79 64 67 73 73 67 58 67 66 63 62 59 54 54 53 52
123 126 128 120 119 117 116 111 112 113 111 108 105 103 99 92 91 85 85 86 84 85 82 82 100 100 86 67 57 54 79 74 69 62 61 58 62 59 60 58 55 55 54
133 124 125 122 123 121 118 117 114 114 111 109 107 107 105 101 98 91 89 89 91 92 89 92 99 91 73 62 57 72 80 64 69 64 57 61 61 60 61 59 57 56 55
121 121 126 126 129 122 120 122 117 115 116 119 120 117 113 109 104 98 93 92 93 92 92 94 89 75 68 63 64 67 63 71 68 65 61 56 56 59 61 62 60 58 56
117 126 130 124 126 129 131 125 120 121 121 120 117 114 112 106 99 91 87 89 88 94 96 96 81 74 68 65 69 71 73 72 73 70 67 65 64 64 63 61 59 62 61
125 122 133 126 120 120 120 119 122 120 114 110 108 106 101 96 93 90 87 90 95 96 95 91 83 78 74 75 75 74 71 80 82 78 72 67 67 67 66 66 65 61 61
121 128 132 131 122 112 116 114 117 113 110 111 114 116 118 117 114 111 110 109 106 98 95 94 88 85 81 80 82 90 93 81 81 73 73 66 68 66 65 62 62 62 60
125 128 136 136 137 134 132 121 115 113 116 120 121 123 126 123 116 111 108 113 106 104 104 101 100 97 94 95 97 94 87 78 80 77 75 75 73 70 67 63 66 62 56
136 138 142 149 147 139 132 130 121 123 125 130 144 153 151 137 131 133 109 110 108 110 113 114 113 113 117 120 109 91 82 95 85 82 78 76 74 69 68 65 62 56 56
148 148 149 150 148 146 139 152 141 142 153 166 173 176 196 149 132 112 109 108 114 122 126 131 132 138 136 130 124 109 96 91 82 81 75 74 72 67 66 66 65 62 58
161 149 156 155 150 154 132 155 154 167 167 168 166 184 197 119 122 120 123 124 128 129 128 131 148 196 103 121 92 107 99 84 74 53 61 64 64 62 64 68 66 64 58
171 153 152 161 152 127 152 166 163 178 172 168 188 125 145 112 120 133 138 150 152 154 159 158 138 87 68 61 71 88 95 100 94 75 66 66 64 60 58 64 66 64 58
168 153 153 170 155 147 167 184 172 178 146 139 115 103 83 107 118 132 155 160 151 148 130 96 92 84 79 70 75 88 94 98 98 88 75 80 70 63 57 55 55 57 56
157 152 160 166 162 156 184 108 103 106 113 82 103 100 134 125 125 146 148 142 126 151 114 119 109 98 91 87 74 79 96 104 107 118 105 85 88 79 68 61 53 50 49
149 145 171 181 162 146 136 117 113 122 131 126 111 129 157 175 148 138 124 120 115 98 116 114 100 97 94 81 68 75 100 127 140 133 126 114 99 91 84 74 67 56 48
147 148 163 186 159 160 128 134 129 119 163 110 126 114 163 146 136 132 125 118 117 117 143 128 119 115 115 123 133 112 83 74 82 86 120 137 131 111 87 85 75 68 56
148 148 163 169 158 156 141 155 119 127 187 117 117 118 130 128 157 140 135 136 136 146 168 124 123 121 119 105 106 101 101 106 83 87 91 80 83 119 118 99 85 76 68
148 148 166 157 151 145 151 143 107 134 94 102 120 121 133 129 163 111 134 147 141 149 180 119 118 119 122 139 114 73 83 109 153 124 115 112 100 61 113 122 117 91 77
146 158 156 144 150 144 155 142 141 163 126 124 92 129 154 135 151 170 122 145 152 146 137 117 116 113 94 104 108 106 55 88 105 152 129 122 121 102 68 53 51 126 83
154 158 144 152 156 161 157 156 156 153 146 115 112 131 116 152 157 172 134 161 144 112 116 118 134 120 112 161 150 135 134 99 171 91 107 89 58 106 102 90 62 33 90
159 157 153 158 165 171 154 159 154 125 105 111 125 135 139 150 172 149 147 162 113 118 122 120 134 131 154 216 225 188 151 155 139 112 121 96 88 70 103 105 89 53 81
163 159 160 161 165 168 170 157 143 140 149 154 159 128 138 138 139 147 153 127 124 128 131 141 158 164 147 185 335 274 28 113 172 133 101 117 128 111 58 60 99 87 101
166 163 156 159 158 174 202 141 139 155 147 148 122 129 132 126 147 176 122 122 119 126 136 163 184 178 168 153 174 190 221 147 100 136 136 181 105 121 128 98 89 86 83
159 162 163 166 168 191 182 140 157 163 144 139 139 136 127 128 136 139 144 127 144 136 151 172 170 186 180 182 180 175 157 168 190 114 121 161 141 128 108 102 89 84 111